Погода в Уваровке

Россия / Республика Крым     45°26′44″N   34°47′14″E
темп.,
°C
ветер,
м/с
пор.,
м/с
влажн.,
%
обл.,
%
осадки,
мм/ч
давл.,
гПа
погр.,
м
8 мая, сб
сб800:00+13юв3460100 0.0 101458
03:00+11ююв3462100 0.0 101249
06:00+12ююв3371100 0.0 101141
09:00+20ю465499 0.0 1010465
12:00+25ююз463520 0.0 10091521
15:00+21ссз8954100 0.0 1009666
18:00+18ссз9971100 0.0 1011768
21:00+13ссз81283100 0.2 1013725
9 мая, вс
вс900:00+11сз51178100 4.0 1015610
03:00+10ссз61175100 4.0 1017642
06:00+8ссз61076100 0.0 1019731
09:00+11ссз796065 0.0 10221243
12:00+14ссз78455 0.0 10231996
15:00+15ссз783825 0.0 10232497
18:00+15ссз484391 0.0 10242296
21:00+11ссз235327 0.0 102645
10 мая, пн
пн1000:00+9зсз33560 0.0 102728
03:00+7сз23705 0.0 102725
06:00+7сз33755 0.0 102855
09:00+13с57470 0.0 10281731
12:00+14с56395 0.0 10272078
15:00+16с45352 0.0 10262181
18:00+15ссз463950 0.0 10242296
21:00+12сз41050100 0.0 1024293
11 мая, вт
вт1100:00+8з4767100 0.0 1023117
03:00+7з497567 0.0 1021157
06:00+9зсз41070100 0.0 1020347
09:00+11зсз5966100 0.0 1019679
12:00+11сз5771100 0.0 1018780
15:00+11зсз4681100 0.3 1017698
18:00+11з2483100 0.1 1017230
21:00+10з2396100 1.6 1016119
12 мая, ср
ср1200:00+10зсз2297100 0.5 101591
03:00+10св1291100 0.8 101428
06:00+10ссв228284 0.1 101338
09:00+13всв116559 0.1 1013860
12:00+15ююв235898 0.1 10131572
15:00+17в3356100 0.3 10131275
18:00+16в446852 0.1 1013608
21:00+11юз467539 0.2 101375